Hourly Data Report for September 11, 2017

All times are specified in Local Standard Time (LST). Add 1 hour to adjust for Daylight Saving Time where and when it is observed.

FISHER BRANCH (AUT)
MANITOBA

51°05'00.100" N
97°33'16.200" W
253.00 m
50309J6
71442
WSZ

Download Data

Hourly Data (September 2017)
Hourly Data Report for September 11, 2017
Temp Definition
°C
Dew Point Temp Definition
°C
Rel Hum Definition
%
Wind Dir Definition
10's deg

Wind Spd Definition
km/h
Visibility Definition
km
Stn Press Definition
kPa
Hmdx Definition


Wind Chill Definition


Weather Definition


TIME
00:00 17.9 7.7 51 26 10   98.24     LegendNANA
01:00 16.3 6.9 54 26 12   98.28     LegendNANA
02:00 14.4 5.8 56 26 11   98.32     LegendNANA
03:00 14.4 5.7 56 26 12   98.35     LegendNANA
04:00 14.1 5.2 55 26 14   98.41     LegendNANA
05:00 13.0 5.5 60 26 12   98.47     LegendNANA
06:00 12.7 5.8 63 26 14   98.52     LegendNANA
07:00 13.7 6.2 61 25 15   98.57     LegendNANA
08:00 15.7 6.2 53 25 18   98.59     LegendNANA
09:00 18.2 6.1 45 26 20   98.62     LegendNANA
10:00 19.6 5.4 39 26 21   98.65     LegendNANA
11:00 20.9 4.5 34 26 22   98.64     LegendNANA
12:00 22.1 3.7 30 26 24   98.61     LegendNANA
13:00 22.9 1.8 25 27 21   98.56     LegendNANA
14:00 24.5 2.8 24 27 16   98.47     LegendNANA
15:00 25.6 3.3 24 25 18   98.43     LegendNANA
16:00 25.4 2.2 22 27 17   98.37     LegendNANA
17:00 24.7 3.3 25 26 12   98.35     LegendNANA
18:00 22.9 4.7 31 22 9   98.31     LegendNANA
19:00 19.1 6.1 43 20 9   98.28     LegendNANA
20:00 17.0 7.0 51 19 8   98.21     LegendNANA
21:00 16.0 7.8 58 19 9   98.14     LegendNANA
22:00 15.4 7.7 60 18 8   98.10     LegendNANA
23:00 14.2 7.3 63 17 8   98.02     LegendNANA

Notes on Data Quality.

Legend

  • E = Estimated
  • M = Missing
  • NA = Not Available
  • ‡ = Partner data that is not subject to review by the National Climate Archives
Date modified: